[[{"header":{"parameterUnit":"m.s-1","parameterCategory":1,"la1":30.2991,"la2":30.254,"lo1":-89.0895,"lo2":-89.0444,"dx":0.0017,"dy":0.0017,"nx":28,"ny":28,"refTime":"2023-01-14T03:00:00:Z","depth":0,"parameterNumber":2,"parameterNumberName":"U-component_of_WINDS"},"data":[0,0,0,0,0,0,0,0,0,0,0,0,0,0,0,0,0,0,0,0,0,0,0,0,0,0,0,0,0,0,0,0,0,0,0,0,0,0,0,0,0,0,0,0,0,0,0,0,0,0,0,0,0,0,0,0,0,0,0.4536,0.4536,0,0.4548,0.4548,0.4548,0.4542,0.4542,0.4541,0.4541,0.4554,0.4554,0.4555,0,0,0,0,0,0,0,0,0,0,0,0,0,0.4509,0.451,0.4536,0.4536,0.4537,0.4548,0.4548,0.4549,0.4542,0.4542,0.4541,0.4541,0.4553,0.4554,0.4555,0,0,0,0,0,0,0,0,0,0,0,0,0,0.4521,0.451,0.4536,0.4535,0.4535,0.4548,0.4548,0.4549,0.4542,0.4542,0.4541,0.4541,0.4553,0.4554,0.4555,0.4571,0,0,0.4558,0.4558,0,0,0,0,0,0,0,0,0.4521,0.4522,0.4535,0.4535,0.4535,0.4543,0.4544,0.4556,0.4542,0.4539,0.4541,0.454,0.4551,0.4552,0.4555,0.4571,0.4572,0.4558,0.4559,0.4559,0.4559,0,0,0,0,0,0,0,0.452,0.4522,0.4541,0.4535,0.4535,0.4534,0.4535,0.4546,0.4548,0.4539,0.4539,0.4541,0.455,0.4554,0.4555,0.4572,0.4558,0.4559,0.4559,0.456,0.4604,0.4604,0,0,0,0,0,0,0.4519,0.4521,0.4541,0.4541,0.4526,0.4535,0.4536,0.4541,0.4547,0.4548,0.4541,0.454,0.4553,0.4554,0.4556,0.4575,0.4559,0.456,0.4561,0.4603,0.4604,0.4605,0,0,0,0,0,0,0.4518,0.4521,0.454,0.4531,0.4533,0.4536,0.4541,0.4541,0.4545,0.4548,0.4549,0.4544,0.4552,0.4554,0.4567,0.4576,0.456,0.4561,0.4603,0.4604,0.4604,0.4614,0,0,0,0,0,0,0.4518,0.452,0.4526,0.4531,0.4534,0.4551,0.4542,0.4542,0.4547,0.4546,0.4552,0.4552,0.4552,0.4566,0.4568,0.4577,0.4562,0.4602,0.4603,0.4604,0.4613,0.4616,0.4617,0,0,0,0,0,0.4517,0.4528,0.4526,0.4529,0.4541,0.4552,0.4553,0.4553,0.4547,0.4553,0.4556,0.4552,0.4575,0.4567,0.457,0.4579,0.4601,0.4603,0.4604,0.4612,0.4615,0.4617,0,0,0,0,0,0,0.4523,0.4529,0.4527,0.454,0.4546,0.455,0.4558,0.4555,0.4562,0.4561,0.4561,0.4562,0.4576,0.4579,0.4571,0.4595,0.4587,0.4589,0.4593,0.4595,0.4597,0.4596,0.4563,0,0,0,0,0,0.4526,0.4534,0.4539,0.455,0.4553,0.4555,0.456,0.4559,0.4565,0.4567,0.457,0.4576,0.4585,0.459,0.4598,0.4614,0.4616,0.4622,0.4624,0.4625,0.4627,0.4637,0.464,0.4609,0.4609,0.4609,0,0,0.4533,0.4537,0.4541,0.4552,0.4556,0.4565,0.4557,0.4566,0.4573,0.4568,0.4581,0.4584,0.4591,0.4606,0.4612,0.4608,0.4636,0.4627,0.4628,0.4629,0.4638,0.4641,0.4644,0.461,0.461,0.461,0,0,0.4549,0.4552,0.4563,0.4567,0.4574,0.4575,0.4578,0.4584,0.4586,0.4598,0.4596,0.4604,0.4619,0.4624,0.4628,0.4649,0.4646,0.4651,0.4662,0.4671,0.4674,0.4676,0.4684,0.4686,0.4653,0.4653,0.4653,0,0.4555,0.4568,0.4568,0.4578,0.4583,0.458,0.4591,0.4596,0.4605,0.4609,0.4604,0.4623,0.4627,0.4644,0.4649,0.4653,0.4657,0.465,0.4673,0.4676,0.4678,0.4685,0.4688,0.4654,0.4654,0.4654,0.4653,0,0.4577,0.4586,0.4594,0.4603,0.4609,0.4619,0.4622,0.4628,0.4628,0.463,0.4644,0.4649,0.4659,0.4663,0.4662,0.468,0.4677,0.4673,0.4665,0.4681,0.4688,0.4691,0.4655,0.4654,0.4654,0.4654,0,0,0.4595,0.4606,0.4609,0.4613,0.4621,0.4629,0.464,0.4649,0.4655,0.4662,0.4672,0.4685,0.4682,0.4687,0.4687,0.4696,0.4713,0.4691,0.4691,0.4695,0.4734,0.4737,0.474,0.4711,0.4712,0.4712,0.4733,0,0.4612,0.4631,0.4632,0.465,0.4659,0.4657,0.4667,0.4673,0.4677,0.4685,0.4689,0.4699,0.4693,0.4697,0.4705,0.4709,0.4721,0.4708,0.4721,0.4721,0.4719,0.4743,0.4746,0.4766,0.4736,0.4737,0.4737,0,0.4633,0.4641,0.466,0.4668,0.4672,0.4681,0.469,0.4699,0.4707,0.4708,0.4715,0.4715,0.4727,0.4719,0.4737,0.4728,0.4734,0.4737,0.4738,0.4739,0.473,0.4745,0.4772,0.4775,0.4741,0.4741,0.474,0,0.4646,0.4661,0.4674,0.4679,0.4688,0.4695,0.4699,0.4707,0.4713,0.4722,0.4726,0.4736,0.4742,0.475,0.4753,0.4747,0.4771,0.4763,0.4774,0.4774,0.4778,0.4778,0.4806,0.4782,0.4782,0.4782,0.4782,0,0.4664,0.4675,0.468,0.4688,0.4702,0.4704,0.4717,0.4721,0.4728,0.4738,0.4738,0.4747,0.475,0.476,0.4763,0.4777,0.478,0.4782,0.4783,0.4782,0.4782,0.4786,0.4784,0.4783,0.4783,0.4783,0.4782,0,0.4679,0.4683,0.4697,0.4706,0.4709,0.4718,0.4726,0.4734,0.4738,0.475,0.4753,0.4759,0.4771,0.4775,0.479,0.4791,0.4809,0.4808,0.4806,0.4806,0.4816,0.4815,0.4848,0.4853,0.4826,0.4826,0.4826,0,0.469,0.4699,0.4709,0.4715,0.472,0.4731,0.4737,0.474,0.4748,0.4759,0.4766,0.4778,0.4788,0.4807,0.4813,0.4825,0.4824,0.4835,0.4826,0.4826,0.4825,0.4824,0.4825,0.4836,0.4837,0.4837,0.4837,0,0.4709,0.4711,0.4721,0.4732,0.474,0.4748,0.4757,0.4762,0.4767,0.4775,0.4788,0.4795,0.4811,0.4823,0.4835,0.4841,0.484,0.484,0.4843,0.4842,0.4841,0.4842,0.4811,0.4839,0.4839,0.4839,0.4839,0.4838,0.4723,0.4731,0.474,0.4751,0.4758,0.4766,0.4775,0.4781,0.4791,0.4804,0.4805,0.4819,0.4829,0.4845,0.4851,0.4862,0.4859,0.4864,0.4865,0.4866,0.4867,0.484,0.4865,0.4865,0.4865,0.4864,0.4864,0,0.4743,0.4749,0.4759,0.4771,0.478,0.4779,0.4789,0.4797,0.4809,0.4818,0.4828,0.4843,0.4856,0.4863,0.4876,0.4884,0.4884,0.4887,0.4886,0.4888,0.4868,0.4865,0.4887,0.4887,0.4887,0.4887,0.4887,0.4887,0.4754,0.4768,0.4772,0.479,0.4796,0.4809,0.4815,0.4823,0.4831,0.4848,0.4858,0.4863,0.4872,0.4886,0.4898,0.49,0.4905,0.4908,0.491,0.4891,0.4889,0.4887,0.4883,0.4909,0.4909,0.4928,0.4929,0.4929]},{"header":{"parameterUnit":"m.s-1","parameterCategory":1,"la1":30.2991,"la2":30.254,"lo1":-89.0895,"lo2":-89.0444,"dx":0.0017,"dy":0.0017,"nx":28,"ny":28,"refTime":"2023-01-14T03:00:00:Z","depth":0,"parameterNumber":3,"parameterNumberName":"V-component_of_WINDS"},"data":[0,0,0,0,0,0,0,0,0,0,0,0,0,0,0,0,0,0,0,0,0,0,0,0,0,0,0,0,0,0,0,0,0,0,0,0,0,0,0,0,0,0,0,0,0,0,0,0,0,0,0,0,0,0,0,0,0,0,-3.7957,-3.7958,0,-3.8078,-3.8079,-3.8081,-3.8062,-3.8059,-3.8057,-3.8055,-3.8177,-3.8182,-3.8187,0,0,0,0,0,0,0,0,0,0,0,0,0,-3.7705,-3.771,-3.7956,-3.7958,-3.796,-3.8078,-3.8079,-3.8081,-3.8062,-3.8059,-3.8057,-3.8055,-3.8175,-3.8181,-3.8187,0,0,0,0,0,0,0,0,0,0,0,0,0,-3.7819,-3.7711,-3.7956,-3.7964,-3.7966,-3.8077,-3.8079,-3.8081,-3.8062,-3.8059,-3.8056,-3.8053,-3.8173,-3.8181,-3.8188,-3.8298,0,0,-3.8212,-3.8215,0,0,0,0,0,0,0,0,-3.7813,-3.7828,-3.7962,-3.7964,-3.7966,-3.8052,-3.8035,-3.8154,-3.8063,-3.8026,-3.8055,-3.8052,-3.8137,-3.8148,-3.8177,-3.8304,-3.8309,-3.8213,-3.8217,-3.8221,-3.8223,0,0,0,0,0,0,0,-3.7805,-3.7823,-3.8004,-3.7964,-3.7967,-3.7961,-3.7974,-3.8058,-3.8097,-3.8029,-3.8028,-3.8043,-3.8138,-3.817,-3.818,-3.8311,-3.8212,-3.8219,-3.8224,-3.8227,-3.8532,-3.8535,0,0,0,0,0,0,-3.7795,-3.7817,-3.8001,-3.8008,-3.788,-3.7968,-3.7982,-3.8027,-3.8097,-3.8104,-3.8045,-3.8041,-3.8158,-3.8171,-3.8184,-3.8316,-3.8221,-3.8228,-3.8232,-3.8529,-3.8533,-3.8536,0,0,0,0,0,0,-3.779,-3.7812,-3.7996,-3.7912,-3.7935,-3.7976,-3.8026,-3.8031,-3.8063,-3.8109,-3.8115,-3.8071,-3.8156,-3.8173,-3.827,-3.832,-3.8231,-3.8238,-3.8524,-3.853,-3.8535,-3.8582,0,0,0,0,0,0,-3.7783,-3.781,-3.7853,-3.7913,-3.794,-3.808,-3.8029,-3.8036,-3.8077,-3.8073,-3.8134,-3.8142,-3.8155,-3.8258,-3.8278,-3.8329,-3.8244,-3.852,-3.8527,-3.8533,-3.8576,-3.8588,-3.8599,0,0,0,0,0,-3.7774,-3.7861,-3.7855,-3.7877,-3.7994,-3.8083,-3.8098,-3.8113,-3.8081,-3.8124,-3.8153,-3.814,-3.8312,-3.8269,-3.829,-3.8345,-3.8517,-3.8525,-3.8532,-3.8571,-3.8586,-3.8598,0,0,0,0,0,0,-3.7805,-3.7869,-3.7863,-3.7973,-3.8023,-3.808,-3.8134,-3.8128,-3.8188,-3.8181,-3.8196,-3.821,-3.8308,-3.8336,-3.8286,-3.8454,-3.841,-3.8422,-3.8432,-3.8446,-3.8457,-3.8448,-3.8251,0,0,0,0,0,-3.7824,-3.7892,-3.7944,-3.8036,-3.8062,-3.8094,-3.8133,-3.814,-3.8192,-3.8213,-3.8249,-3.8299,-3.8364,-3.8407,-3.847,-3.858,-3.8593,-3.8629,-3.864,-3.8649,-3.8659,-3.8718,-3.8734,-3.8562,-3.8562,-3.8562,0,0,-3.7865,-3.7909,-3.7951,-3.8043,-3.8083,-3.8152,-3.8112,-3.8186,-3.8237,-3.8224,-3.8317,-3.8346,-3.8402,-3.8506,-3.8553,-3.8533,-3.8709,-3.8659,-3.8666,-3.8671,-3.8728,-3.8744,-3.8759,-3.8567,-3.8566,-3.8565,0,0,-3.7975,-3.8016,-3.8096,-3.8137,-3.8197,-3.8218,-3.8237,-3.8296,-3.8314,-3.8408,-3.8399,-3.8459,-3.8572,-3.8612,-3.8648,-3.8773,-3.8762,-3.8793,-3.8851,-3.8908,-3.8922,-3.8934,-3.8977,-3.8992,-3.8803,-3.8803,-3.8803,0,-3.8018,-3.8123,-3.8138,-3.8214,-3.8254,-3.8246,-3.8327,-3.8365,-3.8443,-3.847,-3.8446,-3.8586,-3.8624,-3.8736,-3.8767,-3.8796,-3.8818,-3.8785,-3.8919,-3.8931,-3.8943,-3.8984,-3.9,-3.8806,-3.8806,-3.8805,-3.8805,0,-3.8172,-3.8244,-3.8302,-3.8377,-3.8424,-3.8502,-3.8528,-3.8574,-3.8576,-3.8599,-3.8695,-3.874,-3.8811,-3.8838,-3.8842,-3.8951,-3.8936,-3.8915,-3.8871,-3.8962,-3.9001,-3.9017,-3.8811,-3.881,-3.8809,-3.8808,0,0,-3.8304,-3.8387,-3.8408,-3.8442,-3.8508,-3.8564,-3.864,-3.8711,-3.8749,-3.8803,-3.8867,-3.8962,-3.8943,-3.8983,-3.8991,-3.9042,-3.9136,-3.9015,-3.9016,-3.9034,-3.9258,-3.9272,-3.929,-3.913,-3.9133,-3.9135,-3.9252,0,-3.8419,-3.8556,-3.8571,-3.8693,-3.8759,-3.8752,-3.8819,-3.8866,-3.889,-3.8948,-3.8974,-3.9041,-3.9011,-3.9035,-3.9085,-3.9114,-3.9181,-3.9106,-3.9188,-3.9191,-3.9173,-3.9311,-3.9326,-3.9434,-3.9268,-3.927,-3.9272,0,-3.8571,-3.863,-3.8758,-3.8814,-3.8842,-3.8902,-3.8968,-3.9024,-3.9077,-3.9091,-3.9136,-3.9137,-3.9215,-3.9168,-3.9275,-3.9224,-3.9258,-3.9277,-3.9282,-3.9289,-3.9236,-3.932,-3.9469,-3.9485,-3.9297,-3.9295,-3.9293,0,-3.8653,-3.8764,-3.8855,-3.8884,-3.8952,-3.8994,-3.9024,-3.9074,-3.9115,-3.9172,-3.9199,-3.9264,-3.9299,-3.9349,-3.9367,-3.9332,-3.9473,-3.9428,-3.9485,-3.9484,-3.9513,-3.9511,-3.9669,-3.9538,-3.9538,-3.9537,-3.9537,0,-3.8779,-3.8857,-3.8892,-3.8948,-3.9035,-3.9052,-3.9137,-3.9165,-3.921,-3.927,-3.9268,-3.9324,-3.9346,-3.9405,-3.942,-3.9505,-3.9521,-3.9533,-3.9536,-3.9533,-3.9531,-3.9555,-3.9547,-3.9542,-3.9541,-3.954,-3.9539,0,-3.8884,-3.8911,-3.9009,-3.9066,-3.9082,-3.9144,-3.9192,-3.9245,-3.9268,-3.9343,-3.9362,-3.9398,-3.9468,-3.9491,-3.9575,-3.9585,-3.9684,-3.9681,-3.9666,-3.9667,-3.9721,-3.9715,-3.9899,-3.9923,-3.9777,-3.9779,-3.978,0,-3.8962,-3.9022,-3.9086,-3.9126,-3.9158,-3.9223,-3.9265,-3.9284,-3.9328,-3.9392,-3.9437,-3.9507,-3.9563,-3.9675,-3.9707,-3.9771,-3.9769,-3.9829,-3.9778,-3.9773,-3.9768,-3.9764,-3.9769,-3.9838,-3.9839,-3.984,-3.9841,0,-3.9097,-3.9108,-3.9169,-3.9234,-3.9285,-3.9337,-3.9388,-3.9421,-3.9447,-3.9496,-3.9567,-3.9611,-3.9698,-3.9766,-3.9831,-3.9861,-3.9855,-3.9857,-3.9873,-3.987,-3.9859,-3.9864,-3.9691,-3.9853,-3.9851,-3.9851,-3.985,-3.985,-3.9191,-3.9243,-3.9296,-3.9363,-3.9404,-3.9451,-3.9503,-3.9533,-3.9594,-3.9666,-3.9673,-3.975,-3.98,-3.9888,-3.9921,-3.998,-3.9963,-3.9987,-3.9993,-3.9998,-4.0002,-3.985,-3.9992,-3.9992,-3.9992,-3.9992,-3.9991,0,-3.9324,-3.9358,-3.942,-3.9491,-3.9544,-3.9536,-3.9591,-3.9635,-3.9703,-3.9751,-3.9807,-3.9889,-3.9955,-3.9993,-4.0059,-4.0099,-4.0098,-4.0116,-4.0112,-4.0119,-4.0014,-3.9993,-4.0116,-4.0115,-4.0115,-4.0115,-4.0115,-4.0115,-3.94,-3.9488,-3.9504,-3.9612,-3.9645,-3.9721,-3.9753,-3.9796,-3.9834,-3.9926,-3.9981,-4.0006,-4.005,-4.0119,-4.0179,-4.0188,-4.0212,-4.0231,-4.0238,-4.0139,-4.0126,-4.0114,-4.0094,-4.0236,-4.0237,-4.0338,-4.0339,-4.034]}]]